Regional Weather Roundup
Issued by NWS

Home | Current Version | Previous Version | Graphics & Text | Print | Product List | Glossary On
Versions: 1 2 3 4 5 6 7 8 9 10 11 12 13 14 15 16 17 18 19 20 21 22 23 24 25 26 27 28 29 30 31 32 33 34 35 36 37 38 39 40 41 42 43 44 45 46 47 48 49 50
000
ASUS43 KLMK 290802
RWRKY
KENTUCKY REGIONAL WEATHER ROUNDUP
NATIONAL WEATHER SERVICE LOUISVILLE KY
300 AM EST MON DEC 29 2014

NOTE "FAIR" INDICATES FEW OR NO CLOUDS BELOW 12,000 FEET
WITH NO SIGNIFICANT WEATHER AND/OR OBSTRUCTIONS TO VISIBILITY.

KYZ001>023-026-027-061>063-070>075-290900-
WESTERN AND SOUTH CENTRAL KENTUCKY

CITY           SKY/WX    TMP DP  RH WIND       PRES   REMARKS
PADUCAH        CLOUDY    33  27  78 NE8       30.21S WCI  26
HENDERSON      CLOUDY    32  25  74 NE8       30.23R WCI  25
OWENSBORO      CLOUDY    34  29  82 NE5       30.22S WCI  30
HOPKINSVILLE   CLOUDY    34  32  91 N8        30.17S WCI  27
BOWLING GREEN  CLOUDY    36  33  89 N3        30.18S FOG
GLASGOW        NOT AVBL
$$

KYZ024-025-028>034-038-045-046-053-290900-
NORTH CENTRAL KENTUCKY

CITY           SKY/WX    TMP DP  RH WIND       PRES   REMARKS
LOUISVILLE/SDF CLOUDY    34  29  82 NE8       30.20F WCI  27
LOUISVILLE/LOU CLOUDY    34  29  82 NE6       30.21F WCI  29
FORT KNOX      CLOUDY    33  29  85 N6        30.18S WCI  27
$$

KYZ035>037-039>044-047>052-055>060-089>105-290900-
NORTHEAST KENTUCKY

CITY           SKY/WX    TMP DP  RH WIND       PRES   REMARKS
LEXINGTON      CLOUDY    31  29  92 N7        30.19R WCI  24
COVINGTON      PTCLDY    30  24  78 NE6       30.22R WCI  24
FRANKFORT      CLOUDY    31  28  89 N6        30.19R WCI  25
$$

KYZ054-064>069-076>088-106>120-290900-
SOUTHEAST KENTUCKY

CITY           SKY/WX    TMP DP  RH WIND       PRES   REMARKS
JACKSON        LGT RAIN  36  35  96 NE3       30.15S FOG
LONDON         LGT RAIN  38  34  85 N6        30.14F WCI  33
SOMERSET       NOT AVBL
MIDDLESBORO    NOT AVBL
MONTICELLO     LGT SNOW  38  38 100 CALM      30.17S FOG
$$



USA.gov is the U.S. government's official web portal to all federal, state and local government web resources and services.